Regional Weather Roundup
Issued by NWS

Home | Current Version | Previous Version | Graphics & Text | Print | Product List | Glossary Off
Versions: 1 2 3 4 5 6 7 8 9 10 11 12 13 14 15 16 17 18 19 20 21 22 23 24 25 26 27 28 29 30 31 32 33 34 35 36 37 38 39 40 41 42 43 44 45 46 47 48 49 50

000
ASUS43 KMKX 090000
RWRWI

WISCONSIN REGIONAL WEATHER ROUNDUP
NATIONAL WEATHER SERVICE MILWAUKEE/SULLIVAN WI
600 PM CST MON FEB 08 2016

NOTE: "FAIR" INDICATES FEW OR NO CLOUDS BELOW 12,000 FEET WITH NO
SIGNIFICANT WEATHER AND/OR OBSTRUCTIONS TO VISIBILITY.

WIZ001-002-006>008-014>016-023>028-090100-
NORTHWEST WISCONSIN

CITY           SKY/WX    TMP DP  RH WIND       PRES   REMARKS
SUPERIOR ARPT  CLOUDY    12   2  65 NW10G21   29.98R WCI  -2
ASHLAND        LGT SNOW  13   8  81 NW7       29.90R WCI   3
6HR MIN TEMP:  13; 6HR MAX TEMP:  18; 6HR PCP:  0.01;

HAYWARD        LGT SNOW  10   5  80 VRB6      29.88S VSB 1   WCI   0
6HR MIN TEMP:  10; 6HR MAX TEMP:  14; 6HR PCP: TRACE;

SIREN          LGT SNOW  12   6  76 NW12      29.94R WCI  -2
CUMBERLAND     LGT SNOW  12   7  79 NW9G17    29.88S WCI   0
RICE LAKE      LGT SNOW  13   8  81 W9        29.90R WCI   1
CHETEK         LGT SNOW  13   8  83 NW3       29.88S
LADYSMITH      FLURRIES  13   7  75 NW12G21   29.86S WCI   0
EAU CLAIRE     LGT SNOW  13   6  74 NW8       29.89S WCI   2
MENOMONIE      LGT SNOW  15   9  76 NW12      29.91S WCI   2
NEW RICHMOND   LGT SNOW  13   8  79 NW14      29.93S WCI  -2
OSCEOLA        LGT SNOW  14   8  75 NW13G20   29.98R WCI   0
$$

WIZ003>005-009-010-017-018-090100-
NORTH CENTRAL WISCONSIN

CITY           SKY/WX    TMP DP  RH WIND       PRES   REMARKS
MANITOWISH WTR LGT SNOW  12   8  83 NW12G20   29.77R WCI  -2
ARBOR VITAE    LGT SNOW  14   9  80 NW9       29.76R WCI   2
WOODRUFF       LGT SNOW  14   9  80 NW9       29.76R WCI   2
RHINELANDER    LGT SNOW  15   9  76 NW13G21   29.74S WCI   1
6HR MIN TEMP:  15; 6HR MAX TEMP:  23; 6HR PCP: TRACE;

EAGLE RIVER    LGT SNOW  15   9  77 NW10G17   29.73S WCI   2
LAND O LAKES   LGT SNOW  14  10  82 NW7       29.74S WCI   4
PHILLIPS       LGT SNOW  12   7  81 NW8       29.79S WCI   0
TOMAHAWK       LGT SNOW  15  10  81 NW12G17   29.77R WCI   2
MEDFORD        LGT SNOW  13  10  85 NW15G23   29.77S WCI  -3
MERRILL        LGT SNOW  17  13  86 NW9G17    29.77R WCI   5
$$

WIZ029-030-035-036-043>047-090100-
CENTRAL WISCONSIN

CITY           SKY/WX    TMP DP  RH WIND       PRES   REMARKS
WAUSAU         LGT SNOW  19  14  81 NW10      29.75R WCI   7
6HR MIN TEMP:  19; 6HR MAX TEMP:  26; 6HR PCP: TRACE;

MOSINEE        LGT SNOW  18  16  93 NW15G21   29.77R WCI   3
MARSHFIELD     LGT SNOW  15   8  73 NW15      29.78S WCI   0
6HR MIN TEMP:  15; 6HR MAX TEMP:  21; 6HR PCP: TRACE;

STEVENS POINT  LGT SNOW  18  13  82 W10       29.77R WCI   6
WAUPACA        CLOUDY    27  17  66 W8        29.75R WCI  18
WAUTOMA        NOT AVBL
WISC RAPIDS    LGT SNOW  16   8  71 NW17G24   29.81R WCI   0
6HR MIN TEMP:  16; 6HR MAX TEMP:  22; 6HR PCP: TRACE;

CAMP DOUGLAS   NOT AVBL
$$

WIZ011>013-019>022-031-037>040-048>050-090100-
NORTHEAST WISCONSIN

CITY           SKY/WX    TMP DP  RH WIND       PRES   REMARKS
ANTIGO         LGT SNOW  17  13  84 NW14      29.72R WCI   3
SHAWANO        CLOUDY    29  19  66 N6        29.73R WCI  23
OCONTO         CLOUDY    25  22  88 N8        29.73R WCI  16
STURGEON BAY   CLOUDY    25  18  74 N16       29.74R WCI  12
6HR MIN TEMP:  25; 6HR MAX TEMP:  32;

GREEN BAY      LGT SNOW  26  23  88 NW9       29.73R FOG     WCI  17
6HR MIN TEMP:  26; 6HR MAX TEMP:  32; 6HR PCP:  0.07;

MANITOWOC      NOT AVBL
APPLETON       LGT SNOW  27  21  80 NW8       29.71F WCI  18
CLINTONVILLE   CLOUDY    28  18  64 NW12      29.73R WCI  18
OSHKOSH        LGT SNOW  25  21  85 NW10      29.73R FOG     WCI  15
6HR MIN TEMP:  25; 6HR MAX TEMP:  29; 6HR PCP: TRACE;

$$

WIZ032>034-041-042-053>061-090100-
SOUTHWEST WISCONSIN

CITY           SKY/WX    TMP DP  RH WIND       PRES   REMARKS
LA CROSSE      LGT SNOW  15   8  73 NW13      29.90R WCI   1
6HR MIN TEMP:  15; 6HR MAX TEMP:  20; 6HR PCP: TRACE;

SPARTA         LGT SNOW  15  10  80 NW10G17   29.87S WCI   3
VIROQUA        CLOUDY    13   8  77 NW14      29.82S WCI  -2
BOSCOBEL       CLOUDY    18   8  65 NW12G20   29.87R WCI   5
6HR MIN TEMP:  18; 6HR MAX TEMP:  23;

PRAIRIE DU CHI MIX PCPN  17   7  64 NW17      29.89R WCI   1
PLATTEVILLE    CLOUDY    20  12  73 NW14      29.81S WCI   6
$$

WIZ056-057-062-063-064-067-068-090100-
SOUTH CENTRAL WISCONSIN

CITY           SKY/WX    TMP DP  RH WIND       PRES   REMARKS
REEDSBURG      CLOUDY    18   9  68 NW13G23   29.81R WCI   5
BARABOO/DELLS  CLOUDY    19  10  67 NW13G20   29.79R WCI   7
LONE ROCK      CLOUDY    20   9  62 NW16G24   29.84R WCI   6
6HR MIN TEMP:  20; 6HR MAX TEMP:  23;

MINERAL POINT  CLOUDY    21  12  68 NW10G18   29.79R WCI  10
MADISON        FLURRIES  21  13  71 NW14G20   29.78R WCI   8
6HR MIN TEMP:  21; 6HR MAX TEMP:  24; 6HR PCP: TRACE;

MIDDLETON      CLOUDY    23  15  71 NW12      29.78R WCI  11
WATERTOWN      CLOUDY    23  18  82 NW14G20   29.74R WCI  11
MONROE         CLOUDY    23  14  68 NW12G22   29.77R WCI  12
JANESVILLE     CLOUDY    25  18  74 NW18      29.77R WCI  11
$$

WIZ051-052-058>065-066-070>072-090100-
SOUTHEAST WISCONSIN

CITY           SKY/WX    TMP DP  RH WIND       PRES   REMARKS
MILWAUKEE      FLURRIES  26  20  77 NW12      29.71R WCI  16
6HR MIN TEMP:  25; 6HR MAX TEMP:  28; 6HR PCP:  0.02;

WAUKESHA       CLOUDY    21  18  86 W16       29.73R WCI   7
MILWAUKEE/TIMM FLURRIES  25  18  74 NW16      29.73R WCI  12
RACINE         LGT SNOW  25  19  78 NW14      29.73R WCI  13
6HR MIN TEMP:  25; 6HR MAX TEMP:  28; 6HR PCP: TRACE;

BURLINGTON     FLURRIES  23  17  77 NW8       29.73R WCI  14
KENOSHA        LGT SNOW  25  19  78 NW14      29.72R WCI  13
6HR MIN TEMP:  25; 6HR MAX TEMP:  28; 6HR PCP: TRACE;

FOND DU LAC    LGT SNOW  24  19  81 NW14      29.74R WCI  12
6HR MIN TEMP:  24; 6HR MAX TEMP:  27; 6HR PCP:  0.01;

SHEBOYGAN      LGT SNOW  26  23  88 NW10      29.71R VSB 1   WCI  16
6HR MIN TEMP:  26; 6HR MAX TEMP:  29; 6HR PCP: TRACE;

WEST BEND      LGT SNOW  25  21  86 W9        29.71R WCI  15
JUNEAU         CLOUDY    22  16  77 W12G21    29.75R WCI  11
$$

LSZ147-162-090100-
LAKE SUPERIOR

STATION/POSITION TIME  TEMP    WIND        PRES    WAVE
                       AIR SEA DIR/SP/G            HT/PER
                 (UTC) (F)     (DEG/KT/KT) (MB)    (FT/S)
DEVILS ISLAND    2300   15     330/ 19/ 21 1013.3R
PORT WING        2340   15     320/ 20/ 24 1013.5R
SAXON HARBOR     2300   16                 1011.5S
$$

LMZ867-665-643>646-090100-
LAKE MICHIGAN

STATION/POSITION TIME  TEMP    WIND        PRES    WAVE
                       AIR SEA DIR/SP/G            HT/PER
                 (UTC) (F)     (DEG/KT/KT) (MB)    (FT/S)
CHAMBERS ISLAND  2300   25     320/ 15/ 21 1006.4R
NORTHPORT PIER   2301   25     340/ 20/ 24 1006.1R
ALGOMA LAKESHORE 2311          330/ 13/ 18   N/A
KEWAUNEE LAKESHO 2300   26     350/ 11/ 17 1005.0R
SHEBOYGAN LAKESH 2300   29     330/ 13/ 16 1006.2R
PORT WASHINGTON  2300   27     290/ 10/ 18 1006.4
MILWAUKEE LAKESH 2310   27     300/ 11/ 14   N/A
KENOSHA   LAKESH 2300   27     300/ 13/ 21 1006.1R
$$

TC  - TEMPERATURE IN CELSIUS
VSB - VISIBILITY IN STATUTE MILES
WCI - WIND CHILL INDEX
HX  - HEAT INDEX




USA.gov is the U.S. government's official web portal to all federal, state and local government web resources and services.